Terug naar catalogus

CZ-6A DEB

ActiefPO
NORAD 54340·DEBRIS·🇨🇳 China

Gelanceerd Nov 11, 2022 vanaf Taiyuan Satellite Launch Center

Loading…

Volgende Passages (komende 24 uur)

TLE

VersSource: Space-Track

Epoch: Sep 14, 2026, 05:37 UTC

1 54340U 22151CK  26257.23468280  .00005088  00000-0  63108-3 0  9994
2 54340  98.5937 354.4665 0096202 241.3471 117.8039 14.79901513204659

Volg CZ-6A DEB in realtime met AllMySat

Download on the App Store